Tributaries of Elbe river

river Ploučnice - water gauge Benešov nad Ploučnicí

Date and time (UTC) H (cm) Q (m3/s)
15. 7. 2019 11:40 80 4
15. 7. 2019 11:00 80 4
15. 7. 2019 10:00 81 4
15. 7. 2019 09:00 80 4
15. 7. 2019 08:00 80 4
15. 7. 2019 07:00 80 4
15. 7. 2019 06:00 81 4
15. 7. 2019 05:00 80 4
15. 7. 2019 04:00 81 4
15. 7. 2019 03:00 79 4
15. 7. 2019 02:00 80 4
15. 7. 2019 01:00 79 4
15. 7. 2019 00:00 80 4
14. 7. 2019 23:00 80 4

H - vodni stav, Q - discharge

river Ohře - water gauge Louny

Date and time (UTC) H (cm) Q (m3/s)
15. 7. 2019 11:40 170 9
15. 7. 2019 11:00 170 9
15. 7. 2019 10:00 169 9
15. 7. 2019 09:00 169 9
15. 7. 2019 08:00 170 9
15. 7. 2019 07:00 171 10
15. 7. 2019 06:00 170 9
15. 7. 2019 05:00 170 9
15. 7. 2019 04:00 170 9
15. 7. 2019 03:00 170 9
15. 7. 2019 02:00 170 9
15. 7. 2019 01:00 169 9
15. 7. 2019 00:00 169 9
14. 7. 2019 23:00 169 9

H - vodni stav, Q - discharge

Praha-Chuchle

Date and time (UTC) H (cm) Q (m3/s)
16. 7. 2019 00:40 48 61
16. 7. 2019 00:00 48 61
15. 7. 2019 23:00 48 61
15. 7. 2019 22:00 46 54
15. 7. 2019 21:00 46 54
15. 7. 2019 20:00 46 54
15. 7. 2019 19:00 46 54
15. 7. 2019 18:00 46 54
15. 7. 2019 17:00 45 51
15. 7. 2019 16:00 45 51
15. 7. 2019 15:00 46 54
15. 7. 2019 14:00 45 51
15. 7. 2019 13:00 44 47
15. 7. 2019 12:00 47 58

H - vodni stav, Q - discharge
more information

river Jizera - water gauge Předměřice

Date and time (UTC) H (cm) Q (m3/s)
15. 7. 2019 11:40 120 8
15. 7. 2019 11:00 119 8
15. 7. 2019 10:00 120 8
15. 7. 2019 09:00 121 8
15. 7. 2019 08:00 122 8
15. 7. 2019 07:00 113 6
15. 7. 2019 06:00 117 7
15. 7. 2019 05:00 120 8
15. 7. 2019 04:00 130 11
15. 7. 2019 03:00 112 5
15. 7. 2019 02:00 110 5
15. 7. 2019 01:00 121 8
15. 7. 2019 00:00 121 8
14. 7. 2019 23:00 129 11

H - vodni stav, Q - discharge

river Cidlina - water gauge Sány

Date and time (UTC) H (cm) Q (m3/s)
16. 7. 2019 00:20 6 0
16. 7. 2019 00:00 6 0
15. 7. 2019 23:00 5 0
15. 7. 2019 22:00 6 0
15. 7. 2019 21:00 5 0
15. 7. 2019 20:00 5 0
15. 7. 2019 19:00 5 0
15. 7. 2019 18:00 5 0
15. 7. 2019 17:00 5 0
15. 7. 2019 16:00 5 0
15. 7. 2019 15:00 5 0
15. 7. 2019 14:00 5 0
15. 7. 2019 13:00 6 0
15. 7. 2019 12:00 9 0

H - vodni stav, Q - discharge

river Orlice - water gauge Týniště nad Orlicí

Date and time (UTC) H (cm) Q (m3/s)
16. 7. 2019 00:20 56 5
16. 7. 2019 00:00 57 5
15. 7. 2019 23:00 56 5
15. 7. 2019 22:00 56 5
15. 7. 2019 21:00 57 5
15. 7. 2019 20:00 56 5
15. 7. 2019 19:00 56 5
15. 7. 2019 18:00 56 5
15. 7. 2019 17:00 56 5
15. 7. 2019 16:00 56 5
15. 7. 2019 15:00 57 5
15. 7. 2019 14:00 57 5
15. 7. 2019 13:00 57 5
15. 7. 2019 12:00 57 5

H - vodni stav, Q - discharge
Source data
Labe Basin Vltava Basin ČHMÚ